This is the latest recevied weather packets stored in our database for station/object K9ABJ. If no packets are shown the sender has not sent any weather packets the latest 10 day(s).
| Time | Temp. | Humidity | Pressure | Rain* | Wind** | Luminosity | Snow |
|---|---|---|---|---|---|---|---|
| 1787978108 | 18.89° C | 82% | 1021.5 hPa | 0 mm | - | 0 W/m² | - |
| 1787977809 | 19.44° C | 81% | 1021.4 hPa | 0 mm | - | 0 W/m² | - |
| 1787977508 | 18.89° C | 83% | 1021.6 hPa | 0 mm | - | 0 W/m² | - |
| 1787977203 | 19.44° C | 83% | 1021.5 hPa | 0 mm | - | 0 W/m² | - |
| 1787976899 | 19.44° C | 83% | 1021.3 hPa | 0 mm | - | 0 W/m² | - |
| 1787976598 | 18.89° C | 84% | 1021.5 hPa | 0 mm | - | 0 W/m² | - |
| 1787976294 | 18.89° C | 84% | 1021.6 hPa | 0 mm | - | 0 W/m² | - |
| 1787975993 | 18.89° C | 83% | 1021.7 hPa | 0 mm | - | 0 W/m² | - |
| 1787975692 | 19.44° C | 83% | 1021.5 hPa | 0 mm | - | 0 W/m² | - |
| 1787975391 | 19.44° C | 83% | 1021.6 hPa | 0 mm | - | 0 W/m² | - |
| 1787975091 | 19.44° C | 83% | 1021.5 hPa | 0 mm | - | 0 W/m² | - |
| 1787974790 | 19.44° C | 82% | 1021.3 hPa | 0 mm | - | 0 W/m² | - |
| 1787974489 | 19.44° C | 82% | 1021.2 hPa | 0 mm | - | 0 W/m² | - |
| 1787974188 | 20° C | 82% | 1021.2 hPa | 0 mm | - | 0 W/m² | - |
| 1787973884 | 20° C | 82% | 1021.4 hPa | 0 mm | - | 0 W/m² | - |
| 1787973578 | 20° C | 82% | 1021.3 hPa | 0 mm | - | 0 W/m² | - |
| 1787973274 | 19.44° C | 82% | 1021.4 hPa | 0 mm | - | 0 W/m² | - |
| 1787972972 | 19.44° C | 82% | 1021.5 hPa | 0 mm | - | 0 W/m² | - |
| 1787972669 | 20° C | 82% | 1021.4 hPa | 0 mm | - | 0 W/m² | - |
| 1787972367 | 19.44° C | 84% | 1021.2 hPa | 0 mm | - | 0 W/m² | - |
| 1787972063 | 18.33° C | 90% | 1021.4 hPa | 0 mm | - | 0 W/m² | - |
| 1787971763 | 17.78° C | 91% | 1021.2 hPa | 0 mm | - | 0 W/m² | - |
| 1787971459 | 17.78° C | 91% | 1021.3 hPa | 0 mm | - | 0 W/m² | - |
| 1787971155 | 17.78° C | 91% | 1021.1 hPa | 0 mm | - | 0 W/m² | - |
| 1787970853 | 17.78° C | 90% | 1021.2 hPa | 0 mm | - | 0 W/m² | - |
* Rain latest hour (hover to see other rain measurements)
** Current wind speed in m/s (hover to see current wind gust speed)